EN

Hourly Weather Luhans'ke

Today, 14 May, Friday

Time Temperature Precipitation Wind Pressure Humidity
00:00 +12°C° 0 mm 3 mps 755 mmHg 87%
01:00 +11°C° 0 mm 3 mps 755 mmHg 86%
02:00 +11°C° 0 mm 3 mps 755 mmHg 85%
03:00 +11°C° 0 mm 3 mps 755 mmHg 84%
04:00 +12°C° 0 mm 2 mps 755 mmHg 82%
05:00 +13°C° 0 mm 2 mps 755 mmHg 81%
06:00 +15°C° 0 mm 2 mps 755 mmHg 71%
07:00 +17°C° 0 mm 2 mps 755 mmHg 62%
08:00 +19°C° 0 mm 2 mps 755 mmHg 52%
09:00 +21°C° 0 mm 2 mps 755 mmHg 47%
10:00 +24°C° 0 mm 3 mps 756 mmHg 43%
11:00 +26°C° 0 mm 3 mps 756 mmHg 38%
12:00 +26°C° 0 mm 3 mps 756 mmHg 39%
13:00 +26°C° 0 mm 4 mps 756 mmHg 39%
14:00 +26°C° 0 mm 4 mps 756 mmHg 40%
15:00 +25°C° 0 mm 4 mps 756 mmHg 44%
16:00 +23°C° 0 mm 4 mps 756 mmHg 49%
17:00 +22°C° 0 mm 3 mps 756 mmHg 53%
18:00 +20°C° 0 mm 3 mps 756 mmHg 61%
19:00 +18°C° 0 mm 3 mps 757 mmHg 69%
20:00 +16°C° 0 mm 3 mps 757 mmHg 77%
21:00 +14°C° 0 mm 3 mps 757 mmHg 77%
22:00 +14°C° 0 mm 3 mps 757 mmHg 78%
23:00 +13°C° 0 mm 3 mps 757 mmHg 79%

Tomorrow, 15 May, Saturday

Time Temperature Precipitation Wind Pressure Humidity
00:00 +13°C° 0 mm 3 mps 758 mmHg 79%
01:00 +13°C° 0 mm 3 mps 758 mmHg 78%
02:00 +12°C° 0 mm 3 mps 758 mmHg 77%
03:00 +12°C° 0 mm 3 mps 758 mmHg 78%
04:00 +13°C° 0 mm 2 mps 758 mmHg 79%
05:00 +13°C° 0 mm 2 mps 758 mmHg 80%
06:00 +16°C° 0 mm 2 mps 758 mmHg 73%
07:00 +18°C° 0 mm 2 mps 758 mmHg 66%
08:00 +21°C° 0 mm 1 mps 758 mmHg 58%
09:00 +21°C° 0 mm 2 mps 758 mmHg 54%
10:00 +24°C° 0 mm 2 mps 758 mmHg 50%
11:00 +25°C° 0 mm 2 mps 758 mmHg 46%
12:00 +25°C° 0 mm 2 mps 758 mmHg 45%
13:00 +26°C° 0 mm 3 mps 758 mmHg 43%
14:00 +26°C° 0 mm 3 mps 757 mmHg 42%
15:00 +25°C° 0 mm 3 mps 757 mmHg 46%
16:00 +25°C° 0 mm 3 mps 757 mmHg 49%
17:00 +24°C° 0 mm 3 mps 757 mmHg 53%
18:00 +21°C° 0 mm 3 mps 757 mmHg 60%
19:00 +19°C° 0 mm 2 mps 757 mmHg 66%
20:00 +17°C° 0 mm 2 mps 757 mmHg 73%
21:00 +17°C° 0 mm 2 mps 757 mmHg 74%
22:00 +16°C° 0 mm 1 mps 757 mmHg 75%
23:00 +16°C° 0 mm 1 mps 757 mmHg 76%

Day after tomorrow, 16 May, Sunday

Time Temperature Precipitation Wind Pressure Humidity
00:00 +16°C° 0 mm 1 mps 757 mmHg 77%
01:00 +16°C° 0 mm 1 mps 757 mmHg 77%
02:00 +16°C° 0 mm 1 mps 757 mmHg 77%
03:00 +16°C° 0 mm 1 mps 756 mmHg 76%
04:00 +16°C° 0 mm 2 mps 756 mmHg 76%
05:00 +16°C° 0 mm 3 mps 756 mmHg 76%
06:00 +17°C° 0 mm 3 mps 756 mmHg 71%
07:00 +19°C° 0 mm 4 mps 756 mmHg 66%
08:00 +21°C° 0 mm 4 mps 756 mmHg 61%
09:00 +22°C° 0 mm 4 mps 756 mmHg 55%
10:00 +23°C° 0 mm 4 mps 755 mmHg 50%
11:00 +25°C° 0 mm 4 mps 755 mmHg 44%
12:00 +26°C° 0 mm 4 mps 755 mmHg 43%
13:00 +26°C° 0 mm 4 mps 754 mmHg 42%
14:00 +26°C° 0 mm 4 mps 754 mmHg 42%
15:00 +25°C° 0.1 mm 4 mps 753 mmHg 48%
16:00 +24°C° 0.1 mm 3 mps 753 mmHg 55%
17:00 +22°C° 0.1 mm 3 mps 752 mmHg 61%
18:00 +21°C° 0.3 mm 2 mps 752 mmHg 67%
19:00 +21°C° 0.3 mm 1 mps 752 mmHg 74%
20:00 +20°C° 0.3 mm 1 mps 752 mmHg 80%
21:00 +19°C° 0.6 mm 1 mps 751 mmHg 82%
22:00 +18°C° 0.6 mm 2 mps 751 mmHg 85%
23:00 +18°C° 0.6 mm 2 mps 751 mmHg 87%

17 May, Monday

Time Temperature Precipitation Wind Pressure Humidity
00:00 +18°C° 0.4 mm 2 mps 751 mmHg 89%
01:00 +17°C° 0.4 mm 2 mps 750 mmHg 91%
02:00 +17°C° 0.4 mm 2 mps 750 mmHg 92%
03:00 +17°C° 0.2 mm 3 mps 750 mmHg 94%
04:00 +17°C° 0.2 mm 3 mps 751 mmHg 95%
05:00 +17°C° 0.2 mm 3 mps 751 mmHg 96%
06:00 +17°C° 0.3 mm 3 mps 751 mmHg 94%
07:00 +18°C° 0.3 mm 4 mps 751 mmHg 91%
08:00 +19°C° 0.3 mm 4 mps 752 mmHg 88%
09:00 +21°C° 0.1 mm 4 mps 752 mmHg 79%
10:00 +22°C° 0.1 mm 5 mps 752 mmHg 70%
11:00 +25°C° 0.1 mm 5 mps 752 mmHg 61%
12:00 +24°C° 0 mm 6 mps 753 mmHg 57%
13:00 +24°C° 0 mm 6 mps 753 mmHg 53%
14:00 +24°C° 0 mm 6 mps 753 mmHg 49%
15:00 +23°C° 0 mm 6 mps 753 mmHg 52%
16:00 +22°C° 0 mm 6 mps 753 mmHg 55%
17:00 +22°C° 0 mm 6 mps 753 mmHg 58%
18:00 +20°C° 0 mm 5 mps 754 mmHg 66%
19:00 +17°C° 0 mm 5 mps 754 mmHg 73%
20:00 +15°C° 0 mm 4 mps 755 mmHg 81%
21:00 +15°C° 0 mm 4 mps 755 mmHg 84%
22:00 +14°C° 0 mm 4 mps 755 mmHg 86%
23:00 +14°C° 0 mm 4 mps 755 mmHg 89%

18 May, Tuesday

Time Temperature Precipitation Wind Pressure Humidity
00:00 +13°C° 0 mm 4 mps 755 mmHg 91%
01:00 +13°C° 0 mm 4 mps 755 mmHg 92%
02:00 +13°C° 0 mm 4 mps 755 mmHg 94%
03:00 +13°C° 0 mm 4 mps 756 mmHg 93%
04:00 +13°C° 0 mm 4 mps 756 mmHg 93%
05:00 +13°C° 0 mm 4 mps 756 mmHg 92%
06:00 +17°C° 0 mm 4 mps 756 mmHg 82%
07:00 +19°C° 0 mm 4 mps 756 mmHg 72%
08:00 +21°C° 0 mm 4 mps 756 mmHg 62%
09:00 +23°C° 0 mm 4 mps 756 mmHg 56%
10:00 +25°C° 0 mm 4 mps 756 mmHg 50%
11:00 +26°C° 0 mm 4 mps 756 mmHg 44%
12:00 +26°C° 0 mm 4 mps 756 mmHg 45%
13:00 +26°C° 0 mm 5 mps 756 mmHg 47%
14:00 +26°C° 0 mm 6 mps 756 mmHg 48%
15:00 +26°C° 0.1 mm 6 mps 756 mmHg 51%
16:00 +25°C° 0.1 mm 5 mps 756 mmHg 53%
17:00 +23°C° 0.1 mm 5 mps 756 mmHg 55%
18:00 +22°C° 0 mm 4 mps 756 mmHg 61%
19:00 +20°C° 0 mm 4 mps 756 mmHg 66%
20:00 +18°C° 0 mm 3 mps 757 mmHg 72%
21:00 +18°C° 0 mm 3 mps 756 mmHg 73%
22:00 +17°C° 0 mm 3 mps 756 mmHg 74%
23:00 +17°C° 0 mm 3 mps 756 mmHg 75%

19 May, Wednesday

Time Temperature Precipitation Wind Pressure Humidity
00:00 +17°C° 0 mm 2 mps 756 mmHg 75%
01:00 +16°C° 0 mm 2 mps 756 mmHg 75%
02:00 +16°C° 0 mm 1 mps 756 mmHg 75%
03:00 +18°C° 0 mm 1 mps 756 mmHg 74%
04:00 +18°C° 0 mm 1 mps 756 mmHg 73%
05:00 +17°C° 0 mm 2 mps 756 mmHg 73%
06:00 +18°C° 0 mm 2 mps 756 mmHg 71%
07:00 +18°C° 0 mm 2 mps 756 mmHg 69%
08:00 +19°C° 0 mm 3 mps 756 mmHg 68%
09:00 +20°C° 0 mm 3 mps 756 mmHg 65%
10:00 +21°C° 0 mm 3 mps 756 mmHg 62%
11:00 +22°C° 0 mm 4 mps 755 mmHg 60%
12:00 +23°C° 0 mm 4 mps 755 mmHg 57%
13:00 +25°C° 0 mm 4 mps 754 mmHg 55%
14:00 +26°C° 0 mm 4 mps 754 mmHg 52%
15:00 +25°C° 0 mm 4 mps 754 mmHg 56%
16:00 +23°C° 0 mm 4 mps 754 mmHg 59%
17:00 +22°C° 0 mm 5 mps 754 mmHg 63%
18:00 +21°C° 0.1 mm 4 mps 753 mmHg 69%
19:00 +19°C° 0.1 mm 4 mps 753 mmHg 75%
20:00 +18°C° 0.1 mm 4 mps 753 mmHg 81%
21:00 +17°C° 0 mm 4 mps 753 mmHg 80%
22:00 +17°C° 0 mm 4 mps 753 mmHg 79%
23:00 +16°C° 0 mm 5 mps 752 mmHg 78%
Show more